Lexington Weather

Lexington, Massachusetts, USA

68°F
7/3/2020 12:39pm 
  • Lexington Conditions: Overcast
  • Temperature: 67.8°F / 19.9°CColder 1.1°F than last hour.
  • Dew Point: 63.9°FDecreased 1.2°Fsince last hour.
  • Relative Humidity: 87%Decreased 1.0% since last hour.
  • Wind: Wind from N N 2 mph, 10-min avg: 1 mph, gust: 3 mph
  • Barometer: 29.86 in Steady
  • Visibility: 10 miles
  • Rain Today: 0.00 in
  •   

Regional Weather Roundup
for Boston / Norton, MA

        
000
ASUS41 KBOX 290604
RWRBOX

REGIONAL WEATHER ROUNDUP
NATIONAL WEATHER SERVICE BOSTON/NORTON MA
200 AM EDT MON JUN 29 2020

NOTE:  "FAIR" INDICATES FEW OR NO CLOUDS BELOW 12,000 FEET WITH NO 
SIGNIFICANT WEATHER AND/OR OBSTRUCTIONS TO VISIBILITY.

MAZALL-290700-
EASTERN MASSACHUSETTS
  
CITY           SKY/WX    TMP DP  RH WIND       PRES   REMARKS
BOSTON         LGT RAIN  65  63  93 S6        29.76S                  
6HR MIN TEMP:  64; 6HR MAX TEMP:  67; 6HR PCP:  0.18;                

BEVERLY        HVY RAIN  67  65  93 S8        29.74F FOG              
LAWRENCE       CLOUDY    67  65  93 CALM      29.76F                  
BEDFORD        RAIN      66  64  93 S3        29.73F                  
BLUE HILL        N/A     63  63 100 E7        29.76S                  
NORWOOD        MOCLDY    66  62  87 CALM      29.75F FOG              
MARSHFIELD     CLOUDY    66  66 100 CALM      29.76S                  
PLYMOUTH       CLOUDY    67  65  93 E3        29.75F                  
TAUNTON        MOCLDY    66  63  90 CALM      29.74F                  
NEW BEDFORD    CLOUDY    71  69  93 SE6       29.74S                  
$$

MAZALL-290700-
CAPE COD AND THE ISLANDS
  
CITY           SKY/WX    TMP DP  RH WIND       PRES   REMARKS
FALMOUTH       CLOUDY    68  68 100 CALM      29.76S                  
HYANNIS        CLOUDY    72  68  87 S7        29.75S                  
CHATHAM        CLOUDY    68  65  90 VRB6      29.77S                  
PROVINCETOWN   CLOUDY    69  69 100 CALM      29.77R                  
NANTUCKET      CLOUDY    66  65  96 SE13      29.75F FOG              
MARTHAS VNYRD  FOG       68  67  96 S9        29.74F VSB 3/4          
$$
 
MAZALL-290700-
CENTRAL AND WESTERN MASSACHUSETTS
  
CITY           SKY/WX    TMP DP  RH WIND       PRES   REMARKS
WORCESTER      FOG       65  63  93 NE6       29.77S VSB 1/4          
6HR MIN TEMP:  64; 6HR MAX TEMP:  67; 6HR PCP:  0.35;                

FITCHBURG      CLOUDY    67  64  90 CALM      29.77R                  
ORANGE         CLOUDY    66  64  93 CALM      29.76F                  
SPRINGFIELD    FOG       64  64 100 E3        29.72S VSB 1            
WESTFIELD      FOG       65  65 100 CALM      29.73F VSB 1/4          
NORTH ADAMS    CLOUDY    64  63  96 CALM      29.77R                  
PITTSFIELD     FOG       61  60  97 CALM      29.77S VSB 3/4          
$$
 
RIZALL-290700-
RHODE ISLAND
  
CITY           SKY/WX    TMP DP  RH WIND       PRES   REMARKS
PROVIDENCE     CLOUDY    69  67  93 CALM      29.75R                  
6HR MIN TEMP:  67; 6HR MAX TEMP:  70; 6HR PCP: TRACE;                

NEWPORT        CLOUDY    70  68  93 SE5       29.74S FOG              
BLOCK ISLAND   LGT RAIN  68  68 100 S5        29.73  FOG              
SMITHFIELD     CLOUDY    64  64 100 N3        29.77R                  
WESTERLY       MOCLDY    71  66  84 E3        29.74S HAZE             
$$
 
CTZALL-290700-
CONNECTICUT
  
CITY           SKY/WX    TMP DP  RH WIND       PRES   REMARKS
BRADLEY INTL   PTCLDY    66  65  96 NW6       29.73S                  
6HR MIN TEMP:  66; 6HR MAX TEMP:  76;                                

HARTFORD       CLEAR     71  66  84 NW3       29.71F                  
BRIDGEPORT     CLEAR     70  67  90 CALM      29.72F                  
DANBURY        CLEAR     63  62  97 SW3       29.75F                  
GROTON         PTCLDY    67  66  97 CALM      29.71F FOG              
NEW HAVEN      CLEAR     69  68  96 CALM      29.72F FOG              
CHESTER        NOT AVBL                                               
MERIDEN        PTCLDY    67  65  93 S3        29.73S                  
WILLIMANTIC    CLOUDY    69  67  93 NE3       29.74S                  
OXFORD         CLEAR     65  65 100 N5        29.76F                  
$$

MEZ002-015-021-024-NHZ003-005-008-011-012-014-VTZ005-008-290700-
NORTHERN NEW ENGLAND
  
CITY           SKY/WX    TMP DP  RH WIND       PRES   REMARKS
PORTLAND ME    CLOUDY    66  63  90 NE14      29.77F FOG              
6HR MIN TEMP:  66; 6HR MAX TEMP:  68; 6HR PCP:  0.18;                

BANGOR ME      CLOUDY    65  61  87 S3        29.83S                  
CONCORD NH     CLOUDY    64  63  96 N3        29.77S                  
MANCHESTER NH  CLOUDY    69  67  93 NE3       29.75R                  
NASHUA NH      CLOUDY    67  67 100 W3        29.76S                  
PORTSMOUTH NH  LGT RAIN  67  66  96 CALM      29.74  FOG              
JAFFREY NH     MOCLDY    65  62  90 CALM      29.78R                  
KEENE NH       CLOUDY    66  64  93 NE6       29.76R                  
BURLINGTON VT  CLOUDY    68  64  87 N6        29.77F                  
MT. WASHINGTON FOG       48  48 100 S7          N/A  VSB 1/16         
$$

NYZ052-076-290700-
EASTERN NEW YORK
  
CITY           SKY/WX    TMP DP  RH WIND       PRES   REMARKS
ALBANY         MOCLDY    65  62  90 CALM      29.76F                  
6HR MIN TEMP:  65; 6HR MAX TEMP:  74;                                

NEW YORK CITY  CLEAR     75  66  73 NW7       29.72F                  
6HR MIN TEMP:  74; 6HR MAX TEMP:  79;                                

$$
 
ANZALL-290700-
MARINE OBSERVATIONS
  
STATION/POSITION TIME  TEMP    WIND        PRES    VSBY  WAVE
                       AIR SEA DIR/SP/G                  HT/PER
                 (UTC) (F)     (DEG/KT/KT) (MB)    (MI)  (FT/S)
BOSTON BUOY      0450   67 68  180/  6/  8 1006.4          1/ 7
BUZZARDS BAY     0500          150/ 12/ 12 1007.9F
NANTUCKET SOUND  0550   68 70  170/ 14/ 17 1006.7S         2/ 3
MASS BAY-STELLWA 0504   66     350/  2/  4 1005.1F  1 7/8  2/ 6
ISLE OF SHOALS   0500   65      80/  4/  4 1006.7F
S OF BLOCK IS    0526      70                N/A           3/ 6
$$

......................KEY.........................
  SKY/WX - SKY CONDITION/PRESENT WEATHER
  TMP    - TEMPERATURE IN FAHRENHEIT
  DWPT   - DEWPOINT IN FAHRENHEIT
  RH     - RELATIVE HUMIDITY IN PERCENT
  WIND   - DIRECTION AND SPEED IN MPH
  PRES   - MEAN SEA LEVEL PRESSURE IN INCHES OF HG
  WCI    - WIND CHILL INDEX
  VSB    - VISIBILITY IN MILES
  HX     - HEAT INDEX
  TC     - TEMPERATURE IN CELSIUS
  VRB    - VARIABLE WIND DIRECTION
  N/A    - NOT AVAILABLE
  
      

Other recent Regional Weather Roundups

Fri Jul 3, 12:04pm

Fri Jul 3, 11:04am

Fri Jul 3, 10:04am

Fri Jul 3, 9:04am

Fri Jul 3, 8:04am

Fri Jul 3, 7:04am

Fri Jul 3, 6:04am

Fri Jul 3, 5:04am

Fri Jul 3, 4:04am

Fri Jul 3, 3:04am

Fri Jul 3, 2:04am

Fri Jul 3, 1:04am

Fri Jul 3, 12:04am

Thu Jul 2, 11:05pm

Thu Jul 2, 10:04pm

Thu Jul 2, 9:04pm

Thu Jul 2, 8:04pm

Thu Jul 2, 7:05pm

Thu Jul 2, 6:04pm

Thu Jul 2, 5:05pm

Thu Jul 2, 4:04pm

Thu Jul 2, 3:04pm

Thu Jul 2, 2:04pm

Thu Jul 2, 1:05pm

Thu Jul 2, 12:04pm

Thu Jul 2, 11:04am

Thu Jul 2, 10:05am

Thu Jul 2, 9:05am

Thu Jul 2, 8:04am

Thu Jul 2, 7:04am

Thu Jul 2, 6:05am

Thu Jul 2, 5:04am

Thu Jul 2, 4:04am

Thu Jul 2, 3:04am

Thu Jul 2, 2:04am

Thu Jul 2, 1:04am

Thu Jul 2, 12:05am

Wed Jul 1, 11:05pm

Wed Jul 1, 10:04pm

Wed Jul 1, 9:04pm

Wed Jul 1, 8:04pm

Wed Jul 1, 7:04pm

Wed Jul 1, 6:04pm

Wed Jul 1, 5:05pm

Wed Jul 1, 4:04pm

Wed Jul 1, 3:04pm

Wed Jul 1, 2:04pm

Wed Jul 1, 1:04pm

Wed Jul 1, 12:04pm

Wed Jul 1, 11:04am

Wed Jul 1, 10:04am

Wed Jul 1, 9:04am

Wed Jul 1, 8:05am

Wed Jul 1, 7:04am

Wed Jul 1, 6:04am

Wed Jul 1, 5:04am

Wed Jul 1, 4:04am

Wed Jul 1, 3:04am

Wed Jul 1, 2:04am

Wed Jul 1, 1:04am

Wed Jul 1, 12:04am

Tue Jun 30, 11:04pm

Tue Jun 30, 10:05pm

Tue Jun 30, 9:04pm

Tue Jun 30, 8:05pm

Tue Jun 30, 7:05pm

Tue Jun 30, 6:04pm

Tue Jun 30, 5:04pm

Tue Jun 30, 4:04pm

Tue Jun 30, 3:04pm

Tue Jun 30, 2:04pm

Tue Jun 30, 1:04pm

Tue Jun 30, 12:04pm

Tue Jun 30, 11:04am

Tue Jun 30, 10:04am

Tue Jun 30, 9:04am

Tue Jun 30, 8:04am

Tue Jun 30, 7:04am

Tue Jun 30, 6:04am

Tue Jun 30, 5:04am

Tue Jun 30, 4:04am

Tue Jun 30, 3:04am

Tue Jun 30, 2:04am

Tue Jun 30, 1:04am

Tue Jun 30, 12:04am

Mon Jun 29, 11:04pm

Mon Jun 29, 10:05pm

Mon Jun 29, 9:04pm

Mon Jun 29, 8:05pm

Mon Jun 29, 7:04pm

Mon Jun 29, 6:04pm

Mon Jun 29, 5:04pm

Mon Jun 29, 4:05pm

Mon Jun 29, 3:04pm

Mon Jun 29, 2:04pm

Mon Jun 29, 1:04pm

Mon Jun 29, 12:04pm

Mon Jun 29, 11:04am

Mon Jun 29, 10:04am

Mon Jun 29, 9:04am

Mon Jun 29, 8:04am

Mon Jun 29, 7:04am

Mon Jun 29, 6:04am

Mon Jun 29, 5:04am

Mon Jun 29, 4:04am

Mon Jun 29, 3:04am

Mon Jun 29, 1:04am

Mon Jun 29, 12:04am

Sun Jun 28, 11:05pm

Sun Jun 28, 10:04pm

Sun Jun 28, 9:05pm

Sun Jun 28, 8:04pm

Sun Jun 28, 7:04pm

Sun Jun 28, 6:04pm

Sun Jun 28, 5:04pm

Sun Jun 28, 4:04pm

Sun Jun 28, 3:04pm

Sun Jun 28, 2:05pm

Sun Jun 28, 1:04pm

Sun Jun 28, 12:04pm

Sun Jun 28, 11:04am

Sun Jun 28, 10:04am

Sun Jun 28, 9:04am

Sun Jun 28, 8:04am

Sun Jun 28, 7:04am

Sun Jun 28, 6:04am

Sun Jun 28, 5:04am

Sun Jun 28, 4:04am

Sun Jun 28, 3:04am

Sun Jun 28, 2:05am

Sun Jun 28, 1:04am

Sun Jun 28, 12:05am

Sat Jun 27, 11:04pm

Sat Jun 27, 10:04pm

Sat Jun 27, 9:04pm

Sat Jun 27, 8:04pm

Sat Jun 27, 7:04pm

Sat Jun 27, 6:04pm

Sat Jun 27, 5:04pm

Sat Jun 27, 4:05pm

Sat Jun 27, 3:04pm

Sat Jun 27, 2:04pm

Sat Jun 27, 1:05pm

Sat Jun 27, 12:04pm

Sat Jun 27, 11:04am

Sat Jun 27, 10:04am

Sat Jun 27, 9:04am

Sat Jun 27, 8:04am

Sat Jun 27, 7:04am

Sat Jun 27, 6:04am

Sat Jun 27, 5:05am

Sat Jun 27, 4:04am

Sat Jun 27, 3:04am

Sat Jun 27, 2:04am

Sat Jun 27, 1:04am

Sat Jun 27, 12:04am

Fri Jun 26, 11:04pm

Fri Jun 26, 10:04pm

Fri Jun 26, 9:05pm

Fri Jun 26, 8:04pm

Fri Jun 26, 7:05pm

Fri Jun 26, 6:04pm

Fri Jun 26, 5:04pm

Fri Jun 26, 4:04pm

Fri Jun 26, 3:04pm

Fri Jun 26, 2:05pm

Fri Jun 26, 1:04pm

Meta data:

ID: eebd3a43-8a84-4286-bb71-5967ae70cebe
Link: https://api.weather.gov/products/eebd3a43-8a84-4286-bb71-5967ae70cebe